Time,TemperatureF,DewpointF,PressureIn,WindDirection,WindDirectionDegrees,WindSpeedMPH,WindSpeedGustMPH,Humidity,HourlyPrecipIn,Conditions,Clouds,dailyrainin,SoftwareType,DateUTC
2013-03-01 00:08:00,30.4,30.1,29.68,NNW,337,5.8,-999.0,99,-99.99,,,0.00,Acu-Link.com,2013-03-01 05:08:00,
2013-03-01 00:23:00,30.2,30.0,29.68,NNW,337,4.7,-999.0,99,-99.99,,,0.00,Acu-Link.com,2013-03-01 05:23:00,
2013-03-01 00:38:00,30.0,29.8,29.68,West,270,4.7,-999.0,99,-99.99,,,0.00,Acu-Link.com,2013-03-01 05:38:00,
2013-03-01 00:53:00,29.8,29.6,29.69,NNW,337,2.7,-999.0,99,-99.99,,,0.00,Acu-Link.com,2013-03-01 05:53:00,
2013-03-01 01:08:00,29.8,29.6,29.69,North,0,2.7,-999.0,99,-99.99,,,0.00,Acu-Link.com,2013-03-01 06:08:00,
2013-03-01 01:24:00,29.5,29.2,29.69,West,270,5.8,-999.0,99,-99.99,,,0.00,Acu-Link.com,2013-03-01 06:24:00,
2013-03-01 01:39:00,29.3,29.1,29.69,WNW,292,3.8,-999.0,99,-99.99,,,0.00,Acu-Link.com,2013-03-01 06:39:00,
2013-03-01 01:54:00,28.9,28.7,29.70,North,0,5.8,-999.0,99,-99.99,,,0.00,Acu-Link.com,2013-03-01 06:54:00,
2013-03-01 02:09:00,28.6,28.3,29.70,North,0,7.8,-999.0,99,-99.99,,,0.00,Acu-Link.com,2013-03-01 07:09:00,
2013-03-01 02:25:00,28.6,28.3,29.70,NNW,337,6.7,-999.0,99,-99.99,,,0.00,Acu-Link.com,2013-03-01 07:25:00,
2013-03-01 02:40:00,28.4,28.2,29.70,NNW,337,4.7,-999.0,99,-99.99,,,0.00,Acu-Link.com,2013-03-01 07:40:00,
2013-03-01 02:55:00,28.4,28.2,29.70,NNW,337,5.8,-999.0,99,-99.99,,,0.00,Acu-Link.com,2013-03-01 07:55:00,
2013-03-01 03:10:00,28.2,28.0,29.70,NW,315,6.3,-999.0,99,-99.99,,,0.00,Acu-Link.com,2013-03-01 08:10:00,
2013-03-01 03:25:00,28.2,28.0,29.71,North,0,4.7,-999.0,99,-99.99,,,0.00,Acu-Link.com,2013-03-01 08:25:00,
2013-03-01 03:41:00,28.0,27.8,29.71,NW,315,6.3,-999.0,99,-99.99,,,0.00,Acu-Link.com,2013-03-01 08:41:00,
2013-03-01 03:56:00,28.0,27.8,29.72,WNW,292,6.3,-999.0,99,-99.99,,,0.00,Acu-Link.com,2013-03-01 08:56:00,
2013-03-01 04:19:00,27.9,27.6,29.72,West,270,4.7,-999.0,99,-99.99,,,0.00,Acu-Link.com,2013-03-01 09:19:00,
2013-03-01 04:35:00,27.7,27.4,29.72,NW,315,6.3,-999.0,99,-99.99,,,0.00,Acu-Link.com,2013-03-01 09:35:00,
2013-03-01 04:50:00,27.3,27.1,29.74,NNW,337,6.7,-999.0,99,-99.99,,,0.00,Acu-Link.com,2013-03-01 09:50:00,
2013-03-01 05:05:00,27.1,26.9,29.74,North,0,5.1,-999.0,99,-99.99,,,0.00,Acu-Link.com,2013-03-01 10:05:00,
2013-03-01 05:20:00,27.0,26.7,29.74,WNW,292,4.3,-999.0,99,-99.99,,,0.00,Acu-Link.com,2013-03-01 10:20:00,
2013-03-01 05:35:00,26.8,26.5,29.74,NW,315,7.4,-999.0,99,-99.99,,,0.00,Acu-Link.com,2013-03-01 10:35:00,
2013-03-01 05:50:00,26.8,26.5,29.75,NNW,337,6.3,-999.0,99,-99.99,,,0.00,Acu-Link.com,2013-03-01 10:50:00,
2013-03-01 06:06:00,26.8,26.5,29.76,NW,315,6.3,-999.0,99,-99.99,,,0.00,Acu-Link.com,2013-03-01 11:06:00,
2013-03-01 06:21:00,26.8,26.5,29.76,NW,315,6.3,-999.0,99,-99.99,,,0.00,Acu-Link.com,2013-03-01 11:21:00,
2013-03-01 06:36:00,26.4,26.2,29.75,WSW,247,5.1,-999.0,99,-99.99,,,0.00,Acu-Link.com,2013-03-01 11:36:00,
2013-03-01 06:51:00,26.2,26.0,29.76,NNW,337,7.4,-999.0,99,-99.99,,,0.00,Acu-Link.com,2013-03-01 11:51:00,
2013-03-01 07:07:00,26.2,26.0,29.77,West,270,5.8,-999.0,99,-99.99,,,0.00,Acu-Link.com,2013-03-01 12:07:00,
2013-03-01 07:22:00,26.1,25.8,29.78,NNW,337,4.3,-999.0,99,-99.99,,,0.00,Acu-Link.com,2013-03-01 12:22:00,
2013-03-01 07:37:00,26.1,25.8,29.79,NW,315,4.7,-999.0,99,-99.99,,,0.00,Acu-Link.com,2013-03-01 12:37:00,
2013-03-01 07:52:00,26.1,25.8,29.79,WNW,292,5.1,-999.0,99,-99.99,,,0.00,Acu-Link.com,2013-03-01 12:52:00,
2013-03-01 08:07:00,26.2,26.0,29.79,West,270,4.3,-999.0,99,-99.99,,,0.00,Acu-Link.com,2013-03-01 13:07:00,
2013-03-01 08:23:00,26.2,26.0,29.80,WNW,292,4.7,-999.0,99,-99.99,,,0.00,Acu-Link.com,2013-03-01 13:23:00,
2013-03-01 08:38:00,26.6,26.4,29.80,NNW,337,6.3,-999.0,99,-99.99,,,0.00,Acu-Link.com,2013-03-01 13:38:00,
2013-03-01 08:53:00,27.3,27.1,29.80,WNW,292,4.3,-999.0,99,-99.99,,,0.00,Acu-Link.com,2013-03-01 13:53:00,
2013-03-01 09:08:00,27.7,27.4,29.80,WNW,292,3.1,-999.0,99,-99.99,,,0.00,Acu-Link.com,2013-03-01 14:08:00,
2013-03-01 09:23:00,27.9,27.4,29.80,NNW,337,5.1,-999.0,98,-99.99,,,0.00,Acu-Link.com,2013-03-01 14:23:00,
2013-03-01 09:39:00,27.9,27.1,29.81,ENE,67,5.1,-999.0,97,-99.99,,,0.00,Acu-Link.com,2013-03-01 14:39:00,
2013-03-01 09:54:00,28.4,27.4,29.81,NNW,337,4.7,-999.0,96,-99.99,,,0.00,Acu-Link.com,2013-03-01 14:54:00,
2013-03-01 10:09:00,28.6,27.1,29.81,NW,315,2.7,-999.0,94,-99.99,,,0.00,Acu-Link.com,2013-03-01 15:09:00,
2013-03-01 10:24:00,28.6,26.8,29.80,WNW,292,8.9,-999.0,93,-99.99,,,0.00,Acu-Link.com,2013-03-01 15:24:00,
2013-03-01 10:39:00,28.6,26.8,29.81,West,270,4.7,-999.0,93,-99.99,,,0.00,Acu-Link.com,2013-03-01 15:39:00,
2013-03-01 10:55:00,28.4,26.4,29.82,West,270,5.1,-999.0,92,-99.99,,,0.00,Acu-Link.com,2013-03-01 15:55:00,
2013-03-01 11:10:00,28.4,25.8,29.82,NNE,22,4.3,-999.0,90,-99.99,,,0.00,Acu-Link.com,2013-03-01 16:10:00,
2013-03-01 11:25:00,28.4,25.8,29.83,NNW,337,5.1,-999.0,90,-99.99,,,0.00,Acu-Link.com,2013-03-01 16:25:00,
2013-03-01 11:40:00,28.4,25.8,29.83,NNW,337,8.3,-999.0,90,-99.99,,,0.00,Acu-Link.com,2013-03-01 16:40:00,
2013-03-01 11:56:00,28.6,25.2,29.83,NNW,337,7.4,-999.0,87,-99.99,,,0.00,Acu-Link.com,2013-03-01 16:56:00,
2013-03-01 12:11:00,28.6,25.5,29.83,NW,315,4.7,-999.0,88,-99.99,,,0.00,Acu-Link.com,2013-03-01 17:11:00,
2013-03-01 12:26:00,28.4,25.0,29.82,WNW,292,5.8,-999.0,87,-99.99,,,0.00,Acu-Link.com,2013-03-01 17:26:00,
2013-03-01 12:41:00,29.1,25.2,29.82,NNW,337,7.8,-999.0,85,-99.99,,,0.00,Acu-Link.com,2013-03-01 17:41:00,
2013-03-01 12:56:00,28.6,24.9,29.83,NNW,337,7.8,-999.0,86,-99.99,,,0.00,Acu-Link.com,2013-03-01 17:56:00,
2013-03-01 13:11:00,27.9,24.5,29.82,WNW,292,5.8,-999.0,87,-99.99,,,0.00,Acu-Link.com,2013-03-01 18:11:00,
2013-03-01 13:27:00,27.5,24.1,29.83,WSW,247,8.3,-999.0,87,-99.99,,,0.00,Acu-Link.com,2013-03-01 18:27:00,
2013-03-01 13:42:00,26.8,23.7,29.83,NW,315,8.3,-999.0,88,-99.99,,,0.00,Acu-Link.com,2013-03-01 18:42:00,
2013-03-01 13:57:00,27.0,23.6,29.83,WSW,247,3.1,-999.0,87,-99.99,,,0.00,Acu-Link.com,2013-03-01 18:57:00,
2013-03-01 14:12:00,26.4,23.1,29.83,NNW,337,5.1,-999.0,87,-99.99,,,0.00,Acu-Link.com,2013-03-01 19:12:00,
2013-03-01 14:27:00,26.6,23.5,29.83,NNW,337,7.4,-999.0,88,-99.99,,,0.00,Acu-Link.com,2013-03-01 19:27:00,
2013-03-01 14:42:00,26.1,22.7,29.84,NNW,337,8.9,-999.0,87,-99.99,,,0.00,Acu-Link.com,2013-03-01 19:42:00,
2013-03-01 14:58:00,25.9,22.8,29.84,NW,315,6.7,-999.0,88,-99.99,,,0.00,Acu-Link.com,2013-03-01 19:58:00,
2013-03-01 15:13:00,25.7,22.9,29.84,WNW,292,5.1,-999.0,89,-99.99,,,0.00,Acu-Link.com,2013-03-01 20:13:00,
2013-03-01 15:28:00,25.2,22.4,29.84,NW,315,5.1,-999.0,89,-99.99,,,0.00,Acu-Link.com,2013-03-01 20:28:00,
2013-03-01 15:43:00,25.0,22.5,29.84,West,270,7.8,-999.0,90,-99.99,,,0.00,Acu-Link.com,2013-03-01 20:43:00,
2013-03-01 15:58:00,24.4,21.9,29.84,NNE,22,6.3,-999.0,90,-99.99,,,0.00,Acu-Link.com,2013-03-01 20:58:00,
2013-03-01 16:14:00,24.3,22.0,29.84,North,0,5.1,-999.0,91,-99.99,,,0.00,Acu-Link.com,2013-03-01 21:14:00,
2013-03-01 16:29:00,23.7,21.7,29.84,NW,315,7.4,-999.0,92,-99.99,,,0.00,Acu-Link.com,2013-03-01 21:29:00,
2013-03-01 16:44:00,23.4,21.4,29.85,West,270,4.7,-999.0,92,-99.99,,,0.00,Acu-Link.com,2013-03-01 21:44:00,
2013-03-01 16:59:00,22.8,21.1,29.85,WNW,292,3.1,-999.0,93,-99.99,,,0.00,Acu-Link.com,2013-03-01 21:59:00,
2013-03-01 17:15:00,22.5,20.7,29.85,West,270,4.3,-999.0,93,-99.99,,,0.00,Acu-Link.com,2013-03-01 22:15:00,
2013-03-01 17:30:00,22.5,21.0,29.85,NNW,337,6.7,-999.0,94,-99.99,,,0.00,Acu-Link.com,2013-03-01 22:30:00,
2013-03-01 17:45:00,22.3,20.8,29.85,West,270,5.8,-999.0,94,-99.99,,,0.00,Acu-Link.com,2013-03-01 22:45:00,
2013-03-01 18:00:00,22.1,20.9,29.86,NNW,337,4.3,-999.0,95,-99.99,,,0.00,Acu-Link.com,2013-03-01 23:00:00,
2013-03-01 18:15:00,21.9,21.0,29.86,WSW,247,5.1,-999.0,96,-99.99,,,0.00,Acu-Link.com,2013-03-01 23:15:00,